Regional Weather Roundup
Issued by NWS Wakefield, VA

Home | Current Version | Previous Version | Text Only | Print | Product List | Glossary Off
Versions: 1 2 3 4 5 6 7 8 9 10 11 12 13 14 15 16 17 18 19 20 21 22 23 24 25 26 27 28

000
ASUS41 KAKQ 230416
RWRAKQ

REGIONAL WEATHER ROUNDUP
NATIONAL WEATHER SERVICE WAKEFIELD VA
1200 AM EDT MON OCT 23 2017

Note: "fair" indicates few or no clouds below 12,000 feet with no
significant weather and/or obstructions to visibility. * = Denotes
station may not report precipitation (e.g., rain,snow,etc.),
thunder or fog.

VAZ042-051-052>054-056-230500-
NORTHERN VIRGINIA

CITY           SKY/WX    TMP DP  RH WIND       PRES   REMARKS
WASH NATIONAL  MOCLDY    64  60  87 S8        30.31F
DULLES         MOCLDY    62  59  90 S3        30.30S
FORT BELVOIR   PTCLDY    55  52  89 CALM      30.30F
QUANTICO       PTCLDY    65  62  90 SE5       30.31F
FREDERICKSBRG* PTCLDY    58  58 100 CALM      30.29F
STAFFORD*      CLOUDY    54  54 100 CALM      30.34F
WARRENTON      PTCLDY    63  56  78 SE3       30.29F
CULPEPER*      PTCLDY    56  53  89 CALM      30.30F
MANASSAS*      CLOUDY    57  55  93 CALM      30.30F
LEESBURG*      CLOUDY    57  55  94 CALM      30.31S
WINCHESTER     CLOUDY    59  52  77 S5        30.28F
FRONT ROYAL*   PTCLDY    63  54  72 CALM      30.27F
LURAY*         CLOUDY    59  55  88 CALM      30.28F
$$

VAZ048-049-060>072-079>083-230500-
CENTRAL AND SOUTH CENTRAL VIRGINIA

CITY           SKY/WX    TMP DP  RH WIND       PRES   REMARKS
RICHMOND       PTCLDY    59  59 100 SE5       30.30F
CHESTERFIELD*  NOT AVBL
PETERSBURG*      N/A    N/A N/A N/A CALM      30.30F FOG
HANOVER        PTCLDY    57  57 100 CALM      30.31F
TAPPAHANNOCK*  PTCLDY   N/A N/A N/A CALM      30.31F
QUINTON*       FAIR      58  58 100 CALM      30.30F
CHARLOTTSVILLE CLEAR     62  55  77 CALM      30.29F
GORDONSVILLE*  PTCLDY    53  53 100 CALM      30.29F
ORANGE*        PTCLDY    54  54 100 CALM      30.29F
LOUISA*        CLEAR     57  54  88 SE3       30.29F
BUMPASS*       FAIR      59  59 100 CALM      30.29F
FARMVILLE*     CLOUDY    62  60  91 CALM      30.28F
CREWE*         FAIR      58  58 100 CALM      30.30S
FORT PICKETT*  FAIR      60  60 100 SE3       30.30F
CHASE CITY*    FAIR      62  56  80 SE5       30.29S
CLARKSVILLE*   FAIR      61  59  94 CALM      30.27F
SOUTH HILL*    CLEAR     58  57  95 CALM      30.35F
LAWRENCEVILLE* FAIR      61  59  93 CALM      30.29F
EMPORIA*         N/A     55  55 100 CALM      30.31F FOG
$$

VAZ088>098-230500-
SOUTHEAST VIRGINIA

CITY           SKY/WX    TMP DP  RH WIND       PRES   REMARKS
NORFOLK        PTCLDY    67  66  97 SE5       30.30F
VIRGINIA BEACH PTCLDY    64  62  93 E3        30.29F
NORFOLK NAVAL  PTCLDY    66  64  93 SE6       30.31F
WEST POINT*    CLOUDY    55  55 100 CALM      30.32S
SALUDA*        FAIR      60  60 100 CALM      30.30F
NEWPORT NEWS   FOG       59  58  96 E3        30.29F VSB 1/2
LANGLEY AFB    PTCLDY    66  66 100 SE3       30.29F
FORT EUSTIS    PTCLDY    61  59  91 CALM      30.27F
WILLIAMSBURG*  PTCLDY    63  63 100 CALM      30.31F
HR EXEC AP*    NOT AVBL
FRANKLIN*      CLEAR     56  55  96 CALM      30.30F
US460-WAKEFLD  CLEAR     57  56  96 CALM      30.29F
$$

VAZ020-022-025-037-045-230500-
WEST CENTRAL AND SOUTHWEST VIRGINIA

CITY           SKY/WX    TMP DP  RH WIND       PRES   REMARKS
STAUNTON*      PTCLDY    59  53  81 S5        30.31S
WAYNESBORO*    PTCLDY    56  54  92 S7        30.30F
HOT SPRINGS VA CLOUDY    56  47  73 SE8G16    30.33F
LYNCHBURG      PTCLDY    62  52  69 SE6       30.28F
DANVILLE       CLEAR     56  54  93 NE3       30.27F
SOUTH BOSTON*  FAIR      57  56  95 E3        30.27F
MARTINSVILLE   MOCLDY    54  53  95 CALM      30.28F
ROANOKE        CLOUDY    57  53  86 CALM      30.29F
BLACKSBURG     PTCLDY    60  52  75 E3        30.32F
DUBLIN*        CLOUDY    58  53  83 E3        30.29F
MARION*        CLOUDY    62  51  67 NE9       30.28F
HILLSVILLE*    CLOUDY    60  50  70 CALM      30.28F
RICHLANDS*     MOCLDY    63  44  49 SE13G21   30.23F
WISE*          CLOUDY    63  54  72 S12G20    30.19F
ABINGDON*      CLOUDY    68  54  61 S9G22     30.21F
$$

MDZ021>025-VAZ099-100-230500-
SOUTHERN MARYLAND AND THE DELMARVA PENINSULA

CITY           SKY/WX    TMP DP  RH WIND       PRES   REMARKS
PATUXENT RIVER CLOUDY    67  65  93 SE9       30.30F
BAY BRIDGE APT PTCLDY    61  59  94 SE5       30.32F
LEONARDTOWN    NOT AVBL
DOVER          PTCLDY    59  59 100 CALM      30.33F
GEORGETOWN     CLOUDY    62  60  93 SE3       30.34F
EASTON         CLOUDY    60  57  91 CALM      30.36F
CAMBRIDGE      FOG       59  59 100 E6        30.32F VSB 1/4
SALISBURY      MOCLDY    62  62 100 E3        30.32F
OCEAN CITY     CLOUDY    63  63 100 CALM      30.34F
WALLOPS ISLAND CLOUDY    67  66  97 E3        30.32F
ACCOMACK*      PTCLDY    64  63  99 E3        30.31F
$$

NCZ012>017-030>032-230500-
NORTH CENTRAL AND EASTERN NORTH CAROLINA

CITY           SKY/WX    TMP DP  RH WIND       PRES   REMARKS
ROANOKE RAPIDS FOG       55  55 100 CALM      30.30F VSB 3/4
RALEIGH        MOCLDY    64  61  90 SE6       30.28F
ELIZABETH CITY FOG       62  62 100 CALM      30.30F VSB 1/4
AHOSKIE*       FOG       59  59 100 CALM      30.31S VSB 3/4
EDENTON*       FOG       65  64  96 CALM      30.31F VSB 1/2
CURRITUCK*     PTCLDY    64  63  97 CALM      30.31F
KILL DEVIL HLS CLOUDY    68  68 100 CALM      30.30S
MANTEO         PTCLDY   N/A N/A N/A E3        30.31S
CAPE HATTERAS  PTCLDY    66  64  93 E3        30.29F
TARBORO*       NOT AVBL
GOLDSBORO      CLEAR     63  61  92 E3        30.27S FOG
WASHINGTON     CLEAR     61  59  95 CALM      30.30F
GREENVILLE     CLEAR     64  61  88 E3        30.30F
NEW BERN       CLEAR     67  66  97 E6        30.29F
WILMINGTON     CLEAR     63  62  97 CALM      30.26F
$$

VAZ048-230500-
ELSEWHERE

CITY           SKY/WX    TMP DP  RH WIND       PRES   REMARKS
HARRISBURG PA  CLOUDY    56  49  77 CALM      30.30F
BALTIMORE      MOCLDY    55  54  96 CALM      30.31F
ANNAPOLIS      PTCLDY    66  65  96 SE9       30.30F
ANDREWS AFB    PTCLDY    59  57  92 SE5       30.29F
PHILADELPHIA   PTCLDY    59  55  87 CALM      30.35S
HENDERSON NC   CLEAR     62  55  78 SE5       30.29S
GREENSBORO     MOCLDY    66  58  75 SE10      30.25F
ROCKY MOUNT    CLEAR     61  61 100 CALM      30.29F
$$

VAZ100-230500-
MARINE

STATION/POSITION TIME  TEMP    WIND        PRES    WAVE   SWELL
                       AIR SEA DIR/SP/G            HT/PER HT/PER
                 (UTC) (F)     (DEG/KT/KT) (MB)    (FT/S) (FT/S)
BRANDYWINE LGT   0342   68     160/ 10/ 11 1027.7F
CAPE MAY NJ      0348   66 67  130/  5/  7 1026.9F
LEWES DE         0348   66 67  150/  4/  5 1027.0F
15NM E FENWICK I 0350   68 68  110/ 10/ 12 1027.6F   2/ 9   2/ 9
OCEAN-CITY-INLET 0348   68 68  150/  3/  5 1027.6F
WACHAPREAGUE VA  0348   67 69   CALM  /  1 1026.6F
THOMAS POINT MD  0400   65 68  140/ 10/ 11   N/A
GOOSES REEF MD   0400   65 69  150/ 10/ 12 1026.3    1/ 2
COVE POINT MD    0348   66     150/  7/ 10 1026.9F
SOLOMONS ISLAND  0348   66 69  150/  2/  4 1025.9F
BISHOPS HEAD MD  0348   66 69  120/  8/  8 1026.8F
PINEY POINT MD   0342          160/ 10/ 11   N/A
POTOMAC MD       0400   69 69  140/ 10/ 12 1025.4    1/ 3
CAMBRIDGE MD     0342   61 67              1027.5F
LEWISETTA VA     0348   67 67  150/  7/  8 1025.9F
RAPPAHANNOCK LGT 0348          100/ 13/ 14 1026.6F
STINGRAY PT      0400   69 69  150/ 12/ 12 1026.2    1/ 2
YORK RVR RNG VA  0348   69     140/ 12/ 13 1026.3F
YORKTOWN VA      0348   67 70  150/  3/  4 1025.6F
JAMESTOWN VA     0400      70  130/  4/  4   N/A
DOMINION TERM VA 0348   68     120/  6/  7 1026.0F
KIPTOPEKE VA     0348      69  110/  7/  9   N/A
CAPE HENRY VA    0348   69     130/  7/  7   N/A
WILLOUBY STN VA  0342   67     130/  8/  8 1025.8F
S CRANEY ISL VA  0348   67     140/  6/  7 1025.8F
CAPE HENRY BUOY  0400      70                N/A     2/10
1ST LANDING BUOY 0400   69 69              1025.8    1/ 3
CAPE CHARLES BUO 0351      70                N/A     2/10
64NM E OF VA BCH 0350   71 69  120/  6/  6 1026.6F   3/ 8   2/ 8
DUCK PIER NC     0348   70 70   70/  5/  5 1025.7F
44100 DUCK FRF   0353      70                N/A     3/25   2/25
44056 DUCK FRF   0400      70                N/A     2/ 9
OREGON INLET NC  0342   70 72   70/  3/  3 1026.0F
HATTERAS NC      0348   73 73  110/  4/  6 1025.6F
DIAMOND SHLS NC  0350   77 81  130/ 10/ 14 1025.6F   3/10   2/10
CAPE LOOKOUT NC  0400   75     120/  9/  9 1024.8F
$$




USA.gov is the U.S. government's official web portal to all federal, state and local government web resources and services.